Location: Chajaco
(28.3592°N, 16.3851°W)
Time: 00:48:31
(UTC+00:00)

Daily predictions for brighter satellites

Satellite Brightness Start Highest point End
(mag) Time Altitude Azimuth Time Altitude Azimuth Time Altitude Azimuth
Cosmos 1980 Rocket 3.7 04:17:07 29° N 04:17:07 29° N 04:19:48 10° NNE
Cosmos 2322 Rocket 4.3 04:16:50 14° SE 04:19:53 22° E 04:24:04 10° NE
NOSS 3-3 (A) 4.4 04:22:36 50° NE 04:22:36 50° NE 04:27:01 10° NNE
NOSS 3-3 (C) 4.4 04:22:46 49° NE 04:22:46 49° NE 04:27:06 10° NNE
CZ-2C R/B 4.1 04:18:55 10° NE 04:23:30 32° E 04:24:56 28° SE
SL-16 R/B 3.6 04:25:34 27° SE 04:27:25 33° ESE 04:32:26 10° NE
SL-4 R/B 3.8 04:32:59 34° E 04:32:59 34° E 04:36:02 10° NE
Meteor 2-6 Rocket 4.3 04:42:04 60° SE 04:42:54 71° E 04:48:35 10° NNE
Skynet4D Del rocket 3.5 04:52:56 76° SSW 04:53:03 76° S 04:59:06 10° E
BREEZE-M DEB (TANK) 4.3 04:53:44 43° W 04:55:45 50° NW 05:00:10 10° NE
Cosmos 1238 Rocket 3.8 04:49:53 10° N 04:56:25 88° W 05:02:09 10° S
USA 234 4.1 04:53:11 10° ESE 04:59:23 48° NE 05:05:36 10° NNW
Cosmos 1934 Rocket 3.8 04:53:36 10° N 04:59:37 73° W 05:05:41 10° S
Cosmos 921 Rocket 4.4 05:04:38 27° N 05:04:38 27° N 05:06:42 10° N
GPS 2-15 Rocket1 4.4 05:04:55 27° SSE 05:04:55 27° SSE 05:08:25 10° ESE
ADEOS 4.1 05:08:49 10° NNE 05:13:57 58° ESE 05:19:03 10° S
IRIDIUM 103 4.4 05:10:35 10° N 05:15:49 78° E 05:21:01 10° S
Timation 1 Rocket 4.3 05:12:15 10° NNW 05:18:16 89° WSW 05:24:16 10° SSE
Cosmos 1605 Rocket 3.9 05:16:16 10° N 05:22:39 76° W 05:29:01 10° S
Meteor 1-27 Rocket 3.9 05:18:39 10° S 05:24:33 81° E 05:30:29 10° N
Meteor 1-4 Rocket 3.4 05:26:46 34° NNW 05:26:46 34° NNW 05:29:01 10° N
GPS 2-18 Rocket1 4.4 05:27:50 26° S 05:28:15 26° S 05:31:37 10° ESE
Sakura Rocket 4.5 05:29:36 20° SSW 05:29:36 20° SSW 05:31:46 10° SSE
ALOS 2.8 05:26:25 10° NNE 05:31:01 60° E 05:35:36 10° S
Cosmos 841 Rocket 4.0 05:26:07 10° S 05:31:12 60° ESE 05:36:21 10° NNE
IRIDIUM 106 4.2 05:28:56 10° N 05:34:07 67° W 05:39:16 10° S
Cosmos 1869 Rocket 3.4 05:30:12 10° N 05:34:31 73° W 05:38:48 10° S
Cosmos 1484 Rocket 3.0 05:32:35 10° NNE 05:36:35 74° ESE 05:40:34 10° S
Cosmos 1763 Rocket 3.8 05:38:38 22° SW 05:41:45 47° WNW 05:46:51 10° N
Cosmos 1570 Rocket 4.1 05:37:32 10° S 05:42:48 79° ESE 05:48:08 10° NNE
ERS-2 2.1 05:39:58 10° S 05:43:34 57° WSW 05:47:09 10° NNW
H-2A R/B 2.7 05:41:10 10° SSW 05:44:58 31° W 05:48:52 10° NW
Cosmos 1727 Rocket 4.2 05:39:56 10° SSW 05:46:01 48° W 05:52:08 10° N
Meteor 1-31 Rocket 2.8 05:43:30 10° NNE 05:47:20 83° ESE 05:51:10 10° S
Cosmos 2360 Rocket 2.4 05:42:27 10° SSW 05:48:05 77° ESE 05:53:46 10° NNE
SJ 16-02 1.2 05:45:35 10° NNW 05:49:59 84° WSW 05:54:22 10° S
Cosmos 2100 Rocket 4.2 05:50:59 10° N 05:57:23 78° E 06:03:42 10° S
CZ-2C R/B 3.7 05:57:33 10° NNW 06:01:27 22° WNW 06:04:18 14° WSW
Cosmos 2322 Rocket 2.8 05:58:45 12° SW 06:03:35 37° WNW 06:08:48 10° N
Chandra Rocket (1) 3.5 05:52:07 13° W 06:03:45 53° SSW 06:07:59 10° SE
DELTA 4 R/B 3.4 05:53:29 14° W 06:05:48 57° SSW 06:09:40 10° ESE
METEOR-M 4.1 06:02:39 10° N 06:07:57 66° WNW 06:13:13 10° SSW
COSMO-SKYMED 1 4.1 06:03:55 10° SE 06:07:57 40° ENE 06:12:01 10° N
Cosmos 2237 4.3 06:02:58 10° SSW 06:08:36 61° WNW 06:14:15 10° N
SJ-12 3.9 06:06:21 10° N 06:10:30 86° W 06:14:37 10° SSW
Cosmos 2123 Rocket 4.1 06:04:39 10° S 06:10:51 82° E 06:17:07 10° N
SL-16 R/B 3.3 06:07:31 12° WSW 06:11:27 25° WNW 06:16:02 10° N
SL-4 R/B 3.7 06:08:36 13° W 06:11:29 23° NW 06:15:14 10° NNE
FENGYUN 3A 3.9 06:06:19 10° N 06:11:30 49° WNW 06:16:40 10° SSW
Cosmos 990 Rocket 3.9 06:07:44 10° NNW 06:12:55 76° WSW 06:18:07 10° S
Cosmos 540 Rocket 3.8 06:09:54 10° SW 06:14:49 46° WNW 06:19:47 10° N
Cosmos 44 Rocket 3.6 06:11:17 10° SW 06:15:44 45° WNW 06:20:19 10° NNE
Cosmos 2263 Rocket 2.3 06:10:37 10° NNW 06:16:08 56° WSW 06:21:40 10° S
CZ-4B R/B 1.8 06:13:31 10° SSW 06:16:19 32° W 06:19:11 10° NNW
Cosmos 1459 Rocket 3.9 06:12:45 10° N 06:18:48 75° W 06:24:49 10° S
Cosmos 1666 3.5 06:18:46 10° NNW 06:22:02 28° W 06:25:17 10° SSW
Yuri Rocket 4.2 06:21:42 10° WSW 06:26:25 53° SSE 06:32:44 10° E
H-2A R/B 4.0 06:25:30 10° NNE 06:29:01 44° E 06:32:31 10° S
Cosmos 1703 Rocket 3.9 06:26:14 10° S 06:30:31 71° E 06:34:50 10° N
ATLAS CENTAUR Rocket 2.6 06:22:55 10° W 06:34:05 85° S 06:38:00 10° E
